Beaumont / Port Arthur, TX

10:41 AM CST on November 18, 2017 (GMT -0600)
Beaumont Municipal

Weather History for KBMT - April, 2014

Change the Weather History Date:

Wednesday, April 2, 2014

  Actual Average (KBPT) Record (KBPT)
Temperature  
Mean Temperature 72 °F -  
Max Temperature 79 °F 75 °F 88 °F (1943)
Min Temperature 66 °F 56 °F 39 °F (1962)
Cooling Degree Days 7    
Growing Degree Days 22 (Base 50)    
Moisture  
Dew Point 69 °F    
Average Humidity 90    
Maximum Humidity 99    
Minimum Humidity 73    
Precipitation  
Precipitation 0.00 in - - ()
Sea Level Pressure  
Sea Level Pressure 29.93 in    
Wind  
Wind Speed 10 mph (SSE)    
Max Wind Speed 18 mph    
Max Gust Speed 26 mph    
Visibility 9 miles    
Events      
Averages and records for this station are not official NWS values.
T = Trace of Precipitation, MM = Missing Value Source: NWS Daily Summary

Daily Weather History Graph

Daily Weather History Graph

Search for Another Location

Airport or City:

Trip Planner

Search our weather history database for the weather conditions in past years. The results will help you decide how hot, cold, wet, or windy it might be!

Date:

Astronomy

Apr. 02, 2014 Rise Set
Actual Time 7:04 AM CDT 7:36 PM CDT
Civil Twilight 6:40 AM CDT 8:00 PM CDT
Nautical Twilight 6:12 AM CDT 8:28 PM CDT
Astronomical Twilight 5:43 AM CDT 8:57 PM CDT
Moon 9:01 AM CDT (4/2) 10:46 PM CDT (4/2)
Length of Visible Light 13h 19m
Length of Day
12h 31m
Waxing Crescent, 10% of the Moon is Illuminated
Apr 2
Waxing Crescent
Apr 7
First Quarter
Apr 15
Full
Apr 22
Last Quarter
Apr 29
New

Hourly Weather History & Observations

Time (CDT) Temp. Dew Point Humidity Pressure Visibility Wind Dir Wind Speed Gust Speed Precip Events Conditions
12:15 AM 66.6 °F 65.7 °F 97% 29.97 in 10.0 mi SE 4.6 mph - N/A   Overcast
12:35 AM 67.1 °F 66.2 °F 97% 29.97 in 10.0 mi SE 8.1 mph - N/A   Overcast
1:15 AM 67.1 °F 66.2 °F 97% 29.97 in 10.0 mi SE 6.9 mph - N/A   Overcast
1:35 AM 67.6 °F 66.4 °F 96% 29.97 in 10.0 mi SSE 6.9 mph - N/A   Overcast
1:55 AM 67.6 °F 66.2 °F 95% 29.97 in 10.0 mi SSE 6.9 mph - N/A   Overcast
2:15 AM 67.8 °F 66.2 °F 95% 29.97 in 10.0 mi SSE 4.6 mph - N/A   Overcast
2:35 AM 68.0 °F 66.2 °F 94% 29.96 in 10.0 mi SSE 6.9 mph - N/A   Overcast
2:55 AM 68.0 °F 66.0 °F 93% 29.95 in 10.0 mi SSE 6.9 mph - N/A   Overcast
3:15 AM 68.2 °F 66.2 °F 93% 29.95 in 10.0 mi SSE 6.9 mph - N/A   Overcast
3:35 AM 68.5 °F 66.7 °F 94% 29.94 in 10.0 mi SSE 6.9 mph - N/A   Overcast
3:55 AM 68.9 °F 67.3 °F 95% 29.94 in 10.0 mi SSE 8.1 mph - N/A   Overcast
4:15 AM 69.1 °F 67.6 °F 95% 29.94 in 10.0 mi SSE 8.1 mph 17.3 mph N/A   Overcast
4:35 AM 68.9 °F 68.0 °F 97% 29.94 in 7.0 mi SSE 11.5 mph 20.7 mph N/A   Overcast
4:55 AM 68.5 °F 68.0 °F 98% 29.94 in 7.0 mi SSE 9.2 mph - N/A   Overcast
5:15 AM 68.4 °F 68.0 °F 99% 29.94 in 7.0 mi SSE 8.1 mph - N/A   Overcast
5:35 AM 68.4 °F 68.0 °F 99% 29.94 in 7.0 mi SSE 8.1 mph - N/A   Overcast
5:55 AM 68.5 °F 68.2 °F 99% 29.95 in 7.0 mi SSE 8.1 mph - N/A   Overcast
6:15 AM 68.9 °F 68.4 °F 98% 29.95 in 10.0 mi SSE 10.4 mph - N/A   Overcast
7:35 AM 68.9 °F 68.4 °F 98% 29.95 in 7.0 mi SSE 10.4 mph 18.4 mph N/A   Overcast
7:55 AM 69.1 °F 68.4 °F 98% 29.96 in 7.0 mi SSE 9.2 mph - N/A   Overcast
8:15 AM 69.1 °F 68.4 °F 98% 29.97 in 7.0 mi SSE 8.1 mph - N/A   Overcast
8:35 AM 69.8 °F 68.7 °F 96% 29.97 in 10.0 mi SSE 10.4 mph - N/A   Overcast
8:55 AM 70.0 °F 68.9 °F 96% 29.97 in 10.0 mi SSE 9.2 mph 17.3 mph N/A   Overcast
9:15 AM 71.1 °F 69.1 °F 93% 29.98 in 10.0 mi SSE 10.4 mph 18.4 mph N/A   Overcast
9:35 AM 72.0 °F 69.4 °F 92% 29.98 in 10.0 mi SSE 9.2 mph 18.4 mph N/A   Overcast
9:55 AM 72.0 °F 69.3 °F 91% 29.98 in 10.0 mi SSE 10.4 mph 19.6 mph N/A   Overcast
10:15 AM 73.6 °F 69.6 °F 87% 29.99 in 10.0 mi SSE 12.7 mph 21.9 mph N/A   Overcast
10:35 AM 72.5 °F 69.3 °F 90% 29.99 in 10.0 mi SSE 9.2 mph 20.7 mph N/A   Overcast
10:55 AM 71.8 °F 69.1 °F 91% 30.00 in 10.0 mi SSE 9.2 mph 20.7 mph N/A   Overcast
11:35 AM 73.4 °F 69.3 °F 87% 29.99 in 10.0 mi SSE 11.5 mph 23.0 mph N/A   Overcast
11:55 AM 73.4 °F 69.6 °F 88% 29.98 in 10.0 mi SSE 13.8 mph 18.4 mph N/A   Overcast
12:15 PM 75.4 °F 69.6 °F 82% 29.97 in 10.0 mi SSE 13.8 mph 23.0 mph N/A   Overcast
12:55 PM 75.6 °F 68.7 °F 79% 29.97 in 10.0 mi SSE 15.0 mph 23.0 mph N/A   Mostly Cloudy
1:15 PM 76.3 °F 69.1 °F 78% 29.95 in 10.0 mi SSE 13.8 mph 20.7 mph N/A   Mostly Cloudy
1:35 PM 78.4 °F 69.1 °F 73% 29.96 in 10.0 mi SSE 16.1 mph 24.2 mph N/A   Scattered Clouds
1:55 PM 78.6 °F 69.3 °F 73% 29.95 in 10.0 mi South 16.1 mph 26.5 mph N/A   Mostly Cloudy
2:15 PM 77.4 °F 68.9 °F 75% 29.95 in 10.0 mi South 18.4 mph 26.5 mph N/A   Overcast
2:35 PM 78.1 °F 69.8 °F 76% 29.93 in 10.0 mi SSE 15.0 mph 26.5 mph N/A   Overcast
2:55 PM 77.2 °F 69.1 °F 76% 29.92 in 10.0 mi SSE 16.1 mph 23.0 mph N/A   Mostly Cloudy
3:15 PM 78.6 °F 69.4 °F 73% 29.91 in 10.0 mi SSE 11.5 mph 21.9 mph N/A   Mostly Cloudy
3:35 PM 77.9 °F 68.7 °F 73% 29.90 in 10.0 mi SSE 15.0 mph 24.2 mph N/A   Scattered Clouds
3:55 PM 77.4 °F 68.9 °F 75% 29.89 in 10.0 mi SSE 16.1 mph 23.0 mph N/A   Scattered Clouds
4:15 PM 77.2 °F 68.7 °F 75% 29.89 in 10.0 mi SSE 12.7 mph 23.0 mph N/A   Scattered Clouds
4:35 PM 77.0 °F 68.5 °F 75% 29.89 in 10.0 mi SSE 17.3 mph 23.0 mph N/A   Clear
4:55 PM 77.0 °F 68.9 °F 76% 29.88 in 10.0 mi SSE 16.1 mph 24.2 mph N/A   Scattered Clouds
5:15 PM 76.1 °F 69.4 °F 80% 29.88 in 10.0 mi South 18.4 mph 26.5 mph N/A   Mostly Cloudy
5:35 PM 73.9 °F 69.3 °F 85% 29.89 in 10.0 mi South 17.3 mph 26.5 mph N/A   Overcast
5:55 PM 72.5 °F 69.3 °F 90% 29.88 in 10.0 mi SSE 17.3 mph 25.3 mph N/A   Overcast
6:15 PM 72.1 °F 69.3 °F 91% 29.89 in 10.0 mi SSE 12.7 mph 21.9 mph N/A   Overcast
6:35 PM 71.8 °F 69.1 °F 91% 29.88 in 7.0 mi SSE 18.4 mph 25.3 mph N/A   Overcast
6:55 PM 71.6 °F 69.1 °F 92% 29.88 in 7.0 mi SSE 10.4 mph 18.4 mph N/A   Overcast
7:15 PM 71.6 °F 69.3 °F 92% 29.88 in 7.0 mi SSE 12.7 mph 17.3 mph N/A   Overcast
7:35 PM 71.6 °F 69.3 °F 92% 29.88 in 10.0 mi SSE 9.2 mph 21.9 mph N/A   Overcast
7:55 PM 71.8 °F 69.4 °F 92% 29.88 in 10.0 mi SSE 9.2 mph 19.6 mph N/A   Overcast
8:15 PM 71.6 °F 69.4 °F 93% 29.89 in 7.0 mi SSE 11.5 mph - N/A   Overcast
8:35 PM 71.1 °F 69.4 °F 95% 29.89 in 7.0 mi SSE 13.8 mph 19.6 mph N/A   Overcast
8:55 PM 70.7 °F 69.8 °F 97% 29.89 in 4.0 mi SSE 10.4 mph 16.1 mph N/A   Overcast
9:15 PM 70.7 °F 69.8 °F 97% 29.89 in 5.0 mi SSE 10.4 mph 18.4 mph N/A   Overcast
9:35 PM 70.5 °F 69.6 °F 97% 29.90 in 5.0 mi SSE 9.2 mph 19.6 mph N/A   Overcast
9:55 PM 70.7 °F 69.4 °F 96% 29.90 in 7.0 mi SSE 11.5 mph 20.7 mph N/A   Overcast
10:15 PM 70.7 °F 69.4 °F 96% 29.91 in 7.0 mi SSE 10.4 mph 20.7 mph N/A   Overcast
10:35 PM 70.7 °F 69.3 °F 95% 29.91 in 10.0 mi SSE 11.5 mph 21.9 mph N/A   Overcast
10:55 PM 70.9 °F 69.3 °F 95% 29.92 in 10.0 mi SSE 8.1 mph 19.6 mph N/A   Overcast
11:15 PM 70.9 °F 69.3 °F 95% 29.92 in 10.0 mi SSE 9.2 mph 19.6 mph N/A   Overcast
11:35 PM 70.9 °F 69.3 °F 95% 29.92 in 7.0 mi South 9.2 mph 20.7 mph N/A   Overcast